Weather Roundup
Issued by NWS

Home | Current Version | Previous Version | Graphics & Text | Print | Product List | Glossary Off
Versions: 1 2 3 4 5 6 7 8 9 10 11 12 13 14 15 16 17 18 19 20 21 22 23 24 25 26 27 28 29 30 31 32 33 34 35 36 37 38 39 40 41 42 43 44 45 46 47 48 49 50

000
NZUS93 KARX 180510
HRRWXR

CURRENT HOURLY OBSERVATIONS ACROSS
MUCH OF THE UPPER MISSISSIPPI VALLEY
NATIONAL WEATHER SERVICE LA CROSSE WI
1100 PM CST WED DEC 17 2014


...SOUTHEAST MINNESOTA...


CITY           SKY/WX    TMP DP  RH WIND       PRES   REMARKS
ROCHESTER      CLOUDY    16  11  80 E7        30.27R WCI   6
ROCHESTER/MAYO MOCLDY    16  10  77 N3        30.28R
WINONA         PTCLDY    19  14  79 CALM      30.34R
AUSTIN         CLOUDY    16  10  79 CALM      30.29R
ALBERT LEA     CLOUDY    18  14  86 CALM      30.29R
DODGE CENTER   MOCLDY    12  10  92 CALM      30.27R
PRESTON        CLOUDY    16  12  84 CALM      30.29R
OWATONNA       MOCLDY    12   9  85 CALM      30.30R
FARIBAULT      MOCLDY    14  10  85 CALM      30.30R
$$

...ELSEWHERE IN MINNESOTA...


CITY           SKY/WX    TMP DP  RH WIND       PRES   REMARKS
MINNEAPOLIS    PTCLDY    15   9  76 NE3       30.33S
INTNL FALLS    PTCLDY     2  -2  83 CALM      30.32R
DULUTH         CLOUDY    16  11  80 N5        30.26S WCI   9
RED WING       PTCLDY    12   9  85 N3        30.32S
REDWOOD FALLS  MOCLDY    10   8  92 CALM      30.30R
MANKATO        CLOUDY    18  10  73 E6        30.31R WCI   9
WORTHINGTON    PTCLDY     9   7  92 CALM      30.26S
FAIRMONT       MOCLDY    10   7  85 W3        30.30R
$$

...SOUTHWEST WISCONSIN...


CITY           SKY/WX    TMP DP  RH WIND       PRES   REMARKS
LA CROSSE      PTCLDY    18  12  77 N6        30.32R WCI  10
PRAIRIE DU CHI MOCLDY    18  13  82 CALM      30.33R
BOSCOBEL       CLEAR     17  12  80 CALM      30.34R
LONE ROCK      CLEAR     22  12  65 CALM      30.31R
PLATTEVILLE    CLEAR     18  15  88 CALM      30.30S
FORT MC COY    CLOUDY    19  12  73 CALM      30.31S
CAMP DOUGLAS   CLOUDY    19  18  93 W5        30.28F WCI  13
VIROQUA        FAIR      16  13  89 N6        30.25S WCI   7
WIS DELLS      CLOUDY    18  13  83 N7        30.26F WCI   8
$$

...ELSEWHERE IN WISCONSIN...


CITY           SKY/WX    TMP DP  RH WIND       PRES   REMARKS
MILWAUKEE      PTCLDY    22  13  68 NW10      30.26R WCI  11
MADISON        CLEAR     18  12  77 NW3       30.27R
GREEN BAY      CLOUDY    27  21  78 NW6       30.24R WCI  20
EAU CLAIRE     CLOUDY    19  12  74 W5        30.31R WCI  12
BLACK RVR FLS  CLOUDY    20  12  71 N5        30.30S WCI  13
MEDFORD        CLOUDY    21  18  88 NW3       30.23R
WAUSAU         CLOUDY    24  19  81 N6        30.23R WCI  17
WIS RAPIDS     CLOUDY    19  12  74 W7        30.29R WCI  10
MARSHFIELD     CLOUDY    20  14  77 W8        30.26R WCI  10
RICE LAKE      CLOUDY    19  14  81 W6        30.32R WCI  11
$$

...NORTHEAST IOWA...


CITY           SKY/WX    TMP DP  RH WIND       PRES   REMARKS
DECORAH        CLOUDY    16  14  93 CALM      30.30R
MASON CITY     CLOUDY    17  12  80 CALM      30.31R
CHARLES CITY   CLOUDY    18  14  86 NE3       30.31R
OELWEIN        PTCLDY    16  14  93 NW3       30.31S
$$

...ELSEWHERE IN IOWA...


CITY           SKY/WX    TMP DP  RH WIND       PRES   REMARKS
DES MOINES     MOCLDY    23  16  74 NE3       30.29F
IOWA CITY      CLEAR     16  13  88 W5        30.33R WCI   9
FORT DODGE     CLEAR     16  10  79 CALM      30.29S
$$

...NORTHERN ILLINOIS...


CITY           SKY/WX    TMP DP  RH WIND       PRES   REMARKS
CHICAGO-OHARE  FLURRIES  24  15  68 NW9       30.28R WCI  14
CHICAGO-MIDWAY CLOUDY    27  16  63 W7        30.29R WCI  19
MOLINE         PTCLDY    18  15  88 CALM      30.31R
ROCKFORD       CLOUDY    23  14  68 VRB3      30.32R
PEORIA         PTCLDY    23  17  78 NE6       30.30F WCI  16
$$

NOTE: "FAIR" INDICATES FEW OR NO CLOUDS BELOW 12,000 FEET WITH NO
SIGNIFICANT WEATHER AND/OR OBSTRUCTIONS TO VISIBILITY. WIND
SPEEDS ARE IN MILES-PER-HOUR.



USA.gov is the U.S. government's official web portal to all federal, state and local government web resources and services.